Location: Azul
(36.7830°S, 59.8500°W)
Time: 09:17:57
(UTC-03:00)

DOVE 4 - Pass Details

Date: 25 October 2021
Orbit: 588 x 799 km, 97.8° (Epoch: 07 December)

Event Time Altitude Azimuth Distance (km) Brightness Sun altitude
Exits shadow 23:17:58 12° 144° (SE) 2,225 ? -36.8°
Drops below altitude 10° 23:18:48 10° 152° (SSE) 2,400 ? -36.9°
Sets 23:22:02 0° 172° (S) 3,343 ? -37.1°
